TimeCDT,TemperatureF,Dew PointF,Humidity,Sea Level PressureIn,VisibilityMPH,Wind Direction,Wind SpeedMPH,Gust SpeedMPH,PrecipitationIn,Events,Conditions,WindDirDegrees,DateUTC
12:55 AM,70.3,56.1,61,30.12,10.0,East,4.6,-,N/A,,Clear,90,2012-09-25 05:55:00
1:55 AM,70.7,56.1,60,30.12,10.0,East,5.8,-,N/A,,Clear,100,2012-09-25 06:55:00
2:55 AM,67.6,57.7,71,30.10,10.0,ENE,4.6,-,N/A,,Clear,60,2012-09-25 07:55:00
3:55 AM,67.5,56.7,68,30.09,10.0,ENE,6.9,-,N/A,,Clear,70,2012-09-25 08:55:00
4:55 AM,66.6,55.2,67,30.10,10.0,ENE,5.8,-,N/A,,Clear,60,2012-09-25 09:55:00
5:55 AM,65.1,54.9,69,30.11,10.0,ENE,5.8,-,N/A,,Clear,60,2012-09-25 10:55:00
6:55 AM,64.6,54.5,70,30.11,10.0,ENE,4.6,-,N/A,,Clear,60,2012-09-25 11:55:00
7:55 AM,68.0,55.2,64,30.13,10.0,NE,4.6,-,N/A,,Clear,40,2012-09-25 12:55:00
8:55 AM,72.5,55.0,54,30.14,10.0,ENE,6.9,-,N/A,,Clear,70,2012-09-25 13:55:00
9:55 AM,76.5,57.6,52,30.14,10.0,Variable,4.6,-,N/A,,Clear,0,2012-09-25 14:55:00
10:55 AM,80.2,60.8,51,30.14,10.0,SE,4.6,-,N/A,,Clear,140,2012-09-25 15:55:00
11:55 AM,81.5,60.1,48,30.14,10.0,Calm,Calm,-,N/A,,Clear,0,2012-09-25 16:55:00
12:55 PM,83.1,62.2,49,30.13,10.0,SE,8.1,-,N/A,,Clear,130,2012-09-25 17:55:00
2:55 PM,83.1,62.2,49,30.09,10.0,SSE,8.1,-,N/A,,Clear,160,2012-09-25 19:55:00
3:55 PM,82.8,61.3,48,30.08,10.0,SE,9.2,-,N/A,,Clear,130,2012-09-25 20:55:00
4:55 PM,81.1,62.2,52,30.07,10.0,SE,11.5,-,N/A,,Clear,140,2012-09-25 21:55:00
5:55 PM,79.9,60.6,52,30.09,10.0,SSE,9.2,-,N/A,,Clear,150,2012-09-25 22:55:00
6:55 PM,78.1,60.3,54,30.09,10.0,SE,8.1,-,N/A,,Clear,130,2012-09-25 23:55:00
7:55 PM,76.8,59.4,55,30.10,10.0,ESE,6.9,-,N/A,,Clear,110,2012-09-26 00:55:00
8:55 PM,75.6,58.1,55,30.11,10.0,ESE,5.8,-,N/A,,Clear,110,2012-09-26 01:55:00
9:55 PM,73.0,61.2,66,30.12,10.0,East,3.5,-,N/A,,Clear,80,2012-09-26 02:55:00
10:55 PM,70.3,61.2,73,30.12,10.0,East,4.6,-,N/A,,Clear,80,2012-09-26 03:55:00
11:55 PM,69.8,60.6,73,30.10,10.0,ENE,3.5,-,N/A,,Clear,70,2012-09-26 04:55:00